Location: Gleizolles
(44.4833°N, 6.7667°E)
Time: 02:12:21
(UTC+00:00)

Vanguard 1 Rocket - Pass Details

Date: 24 June 2024
Orbit: 650 x 4219 km, 34.3° (Epoch: 15 July)

Event Time Altitude Azimuth Distance (km) Brightness Sun altitude
Rises 00:51:50 0° 233° (SW) 5,181 - -19.9°
Reaches altitude 10° 00:54:42 10° 228° (SW) 4,551 - -19.7°
Exits shadow 00:57:45 22° 221° (SW) 4,008 10.1 -19.6°
Maximum altitude 01:08:03 53° 156° (SSE) 3,613 10.1 -18.9°
Drops below altitude 10° 01:30:47 10° 90° (E) 7,350 12.4 -17.2°
Sets 01:37:04 0° 86° (E) 8,467 12.8 -16.6°
